Location: Miles
(41.4492°N, 81.6087°W)
Time: 19:25:50
(UTC+00:00)

Tiros 1 despin weight - Pass Details

Date: 20 September 2024
Orbit: 573 x 615 km, 48.2° (Epoch: 04 October)

Event Time Altitude Azimuth Distance (km) Brightness Sun altitude
Rises 09:16:48 0° 283° (WNW) 2,872 - -21.9°
Reaches altitude 10° 09:19:16 10° 293° (WNW) 1,973 - -21.5°
Exits shadow 09:21:45 26° 318° (NW) 1,223 ? -21.1°
Maximum altitude 09:23:26 34° 359° (N) 1,013 ? -20.8°
Drops below altitude 10° 09:27:37 10° 66° (ENE) 1,982 ? -20.0°
Sets 09:30:06 0° 75° (ENE) 2,887 ? -19.6°
